DECAYED

CZ-6A DEB, 61177 (Decayed)

Orbit data source: Space-Track

CZ-6A DEB, 61177 was space debris in LEO originally from a launch on Tue, 06 Aug 2024 UTC launched from the Taiyaun Space Center, China (TSC). Debris objects in space refer to the collection of defunct objects orbiting the Earth. Examples of debris include non-operational satellites, rocket bodies, and fragments generated from explosions, collisions, or faulty payload assembly.

Not visible in the next 10 days
Identifier
61177, 2024-140RX
Orbit
Decayed
Country
Flag of CNCN / PRC
Related business
Manufacturer
SAST
Mission
Decayed spacecraft
Bus & Motor
Unknown
Mass
Unknown
Launch date (UTC)
2024-08-06 (2 years ago)
Launch vehicle
Unknown
Launch site
Taiyaun Space Center, China (TSC)
Object type
Payload
Rocket body
Debris
Shape & HBR
Unknown shape, 0.1 m
Radar Cross Section
Medium (>0.1 m² and <1 m²)

Expand to show TLE details & history
Last TLE update: 5 months ago

TLE from 5 months ago
0 CZ-6A DEB
1 61177U 24140RX  26012.06847343  .24414463 -98016-6  34857-2 0  9997
2 61177  89.0342 289.0459 0012021 208.2454 151.8203 16.34721560 76130
Epoch: 2026-01-12T01:38Z
TLE epoch observation values (Epoch: 2026-01-12T01:38:36.104Z)
Latitude
-0.00002°
Longitude
152.825°
Altitude
190.189 km
Speed
7.788 km/s
True Right ascension
19h 16m 11s
True Declination
0° 00' 00"
Sunlit
Object was in daylight at epoch
Visualization orbit readout
Latitude
Unknown
Longitude
Unknown
Altitude
Unknown
Speed
Unknown
Apparent Right ascension
Unknown
Apparent Declination
Unknown
Sunlit
N/A
Visualization observer readout
Local Sidereal Time
07:24:19
Azimuth
Unknown
Elevation
Unknown
Doppler factor
Unknown
Orbital elements
Apogee altitude
184.411 km
Perigee altitude
168.653 km
Semi-major axis
6,554.669 km
Eccentricity
0.0012
Inclination
89.0342°
RAAN
289.0459°
Arg. of periapsis
208.2454°
True anomaly
151.88527°
Mean anomaly
151.8203°
Eccentric anomaly
151.85279°
Mean motion
4.08994 °/min
Orbital period
88.02 mins
BSTAR
0.0034857
Loading maneuver chart data...
Computing Atmospheric mass density...
Loading historical data...
Loading historical data...
Loading historical data...
Loading historical data...
Loading historical data...
Loading historical data...
Loading historical data...

Documentation

Showing up to 5 results
|